Main page
METAR-TAF:

METAR-TAF

Airports :

Nebraska City Municipal Airport

Nebraska City, Nebraska, United States

latitude: 40-36N, longitude: 095-51W, elevation: 1161 ft

Current weather observation

The report was made 21 minutes ago, at 06:15 UTC
Wind 10 mph from the South/Southwest
Temperature 43°F
Humidity 49%
Pressure 30.13 in. Hg
Visibility: 10 miles
Clear sky

METAR: KAFK 220615Z AUTO 21009KT 10SM CLR 06/M04 A3013 RMK AO2 T00631043

Time: 01:36 (06:36 UTC)


TAF: missing

Weather observations and forecasts of more than 4000 airports (METAR and TAF reports).

The available stations are represented by yellow and red dots on the map.

Hover mouse over dot to see the name of the station.

Then click to see weather observations and forecasts.

To change the map : click on the green buttons with a black cross to zoom in, on the green button with a dash to zoom out, or on the green arrows for adjacent maps.


METAR-TAF: